Regional Weather Roundup
Issued by NWS

Home | Current Version | Previous Version | Text Only | Print | Product List | Glossary On
Versions: 1 2 3 4 5 6 7 8 9 10 11 12 13 14 15 16 17 18 19 20 21 22 23 24 25 26 27 28 29 30 31 32 33 34 35 36 37 38 39 40 41 42 43 44 45 46 47 48 49 50
000
ASUS43 KMKX 240800
RWRWI

WISCONSIN REGIONAL WEATHER ROUNDUP
NATIONAL WEATHER SERVICE MILWAUKEE/SULLIVAN WI
300 AM CDT THU APR 24 2014

NOTE: "FAIR" INDICATES FEW OR NO CLOUDS BELOW 12,000 FEET WITH NO
SIGNIFICANT WEATHER AND/OR OBSTRUCTIONS TO VISIBILITY.

WIZ001-002-006>008-014>016-023>028-240900-
NORTHWEST WISCONSIN

CITY           SKY/WX    TMP DP  RH WIND       PRES   REMARKS
SUPERIOR ARPT  CLOUDY    33  33  99 NE6       30.02F WCI  28
ASHLAND        LGT RAIN  38  38 100 CALM      30.05S
HAYWARD        LGT RAIN  37  34  89 E7        29.99F WCI  32
SIREN          CLOUDY    39  38  94 SE9       29.94F WCI  33
RICE LAKE      DRIZZLE   39  37  93 E13       29.98F WCI  32
LADYSMITH      DRIZZLE   38  37  94 E8        30.03F WCI  32
EAU CLAIRE     NOT AVBL
MENOMONIE      CLOUDY    42  39  90 E14G23    29.95F FOG
NEW RICHMOND   CLOUDY    42  38  86 SE13G20   29.91F
OSCEOLA        CLOUDY    42  40  91 E17       29.93F
$$

WIZ003>005-009-010-017-018-240900-
NORTH CENTRAL WISCONSIN

CITY           SKY/WX    TMP DP  RH WIND       PRES   REMARKS
WOODRUFF       LGT SNOW  34  30  84 S7        30.07S WCI  28
RHINELANDER    LGT SNOW  32  30  92 E7        30.08F VSB 1   WCI  26
EAGLE RIVER    CLOUDY    38  16  40 S13       30.07R WCI  31
LAND O LAKES   CLOUDY    40  12  31 S3        30.07S
PHILLIPS       LGT RAIN  33  32  97 E6        30.04F WCI  27
TOMAHAWK       LGT SNOW  32  31  95 E6        30.07F WCI  26
MEDFORD        CLOUDY    37  30  78 E8        30.03F WCI  30
MERRILL        FLURRIES  33  31  92 E6        30.07F WCI  28
$$

WIZ029-030-035-036-043>047-240900-
CENTRAL WISCONSIN

CITY           SKY/WX    TMP DP  RH WIND       PRES   REMARKS
WAUSAU         CLOUDY    39  20  46 SE9       30.05F WCI  33
MOSINEE        CLOUDY    37  10  32 SE6       30.08S WCI  33
MARSHFIELD     LGT RAIN  36  29  75 SE13      30.03F WCI  27
STEVENS POINT  CLOUDY    39  13  34 SE5       30.08F
WAUPACA        CLOUDY    43  18  36 S3        30.10S
WAUTOMA        NOT AVBL
WISC RAPIDS    LGT RAIN  34  29  82 E6        30.07F WCI  29
CAMP DOUGLAS   NOT AVBL
$$

WIZ011>013-019>022-031-037>040-048>050-240900-
NORTHEAST WISCONSIN

CITY           SKY/WX    TMP DP  RH WIND       PRES   REMARKS
ANTIGO         FLURRIES  35  24  64 E7        30.09S WCI  29
STURGEON BAY   CLOUDY    37  19  48 SE7       30.11S WCI  32
GREEN BAY      CLOUDY    41  21  44 E3        30.10S
MANITOWOC      NOT AVBL
APPLETON       CLOUDY    41  19  42 SE5       30.09S
CLINTONVILLE   CLOUDY    41  18  38 E9        30.09F
OSHKOSH        CLOUDY    40  21  46 S5        30.10S
$$

WIZ032>034-041-042-053>061-240900-
SOUTHWEST WISCONSIN

CITY           SKY/WX    TMP DP  RH WIND       PRES   REMARKS
LA CROSSE      LGT RAIN  42  36  79 SE9       29.96F
SPARTA         DRIZZLE   38  37  93 E8        30.02F WCI  32
VIROQUA        CLOUDY    37  37 100 E14       29.97F WCI  29
BOSCOBEL       LGT RAIN  41  34  76 E6        29.98F
PRAIRIE DU CHI LGT RAIN  41  36  81 E12G18    29.95F
PLATTEVILLE    FAIR      40  34  78 E16       29.98F WCI  32
$$

WIZ056-057-062-063-064-067-068-240900-
SOUTH CENTRAL WISCONSIN

CITY           SKY/WX    TMP DP  RH WIND       PRES   REMARKS
BARABOO/DELLS  LGT RAIN  36  32  86 E14       30.02F WCI  27
LONE ROCK      NOT AVBL
WATERTOWN      DRIZZLE   35  28  75 E5        30.09S WCI  31
MADISON        CLOUDY    36  29  75 MISG      30.06F
MIDDLETON      CLOUDY    38  32  78 E12G20    30.05F WCI  31
MONROE         CLOUDY    37  35  92 E14G21    30.03F WCI  28
JANESVILLE     CLOUDY    37  30  75 E8        30.07F WCI  31
$$

WIZ051-052-058>065-066-070>072-240900-
SOUTHEAST WISCONSIN

CITY           SKY/WX    TMP DP  RH WIND       PRES   REMARKS
MILWAUKEE      LGT RAIN  39  27  62 NW6       30.11R WCI  35
WAUKESHA       FLURRIES  34  27  75 CALM      30.11S
MILWAUKEE/TIMM LGT RAIN  37  21  52 CALM      30.12R
RACINE         LGT RAIN  37  32  82 W6        30.12R WCI  32
BURLINGTON     MIX PCPN  34  30  85 NE3       30.10R
KENOSHA        CLOUDY    37  31  78 NW5       30.11R WCI  33
FOND DU LAC    CLOUDY    41  14  33 W3        30.10R
SHEBOYGAN      CLOUDY    38  26  62 CALM      30.09F
WEST BEND      CLOUDY    37  14  38 CALM      30.10S
JUNEAU         CLOUDY    37  21  54 CALM      30.12R
$$

LSZ147-162-240900-
LAKE SUPERIOR

STATION/POSITION TIME  TEMP    WIND        PRES    WAVE
                       AIR SEA DIR/SP/G            HT/PER
                 (UTC) (F)     (DEG/KT/KT) (MB)    (FT/S)
DEVILS ISLAND    0700   35     300/  5/  5 1018.7S
PORT WING        0740   34      10/  3/  5 1017.3F
SAXON HARBOR     0700             CALM     1017.6
$$

LMZ867-665-643>646-240900-
LAKE MICHIGAN

STATION/POSITION TIME  TEMP    WIND        PRES    WAVE
                       AIR SEA DIR/SP/G            HT/PER
                 (UTC) (F)     (DEG/KT/KT) (MB)    (FT/S)
NORTHPORT PIER   0700   37      CALM  /  1 1020.0F
SISTER BAY       0753   39     110/  5/  9   N/A
KEWAUNEE LAKESHO 0700   38      50/  3/  4 1020.2R
SHEBOYGAN LAKESH 0700   39      10/  7/  8 1020.1R
PORT WASHINGTON  0700   40      70/  4/  5 1019.6
MILWAUKEE LAKESH 0700   38     140/  1/  2   N/A
KENOSHA   LAKESH 0700   38      60/  4/  5   N/A
$$

TC  - TEMPERATURE IN CELSIUS
VSB - VISIBILITY IN STATUTE MILES
WCI - WIND CHILL INDEX
HX  - HEAT INDEX




USA.gov is the U.S. government's official web portal to all federal, state and local government web resources and services.